This is the latest recevied weather packets stored in our database for station/object KM8V-8. If no packets are shown the sender has not sent any weather packets the latest 10 day(s).
| Time | Temp. | Humidity | Pressure | Rain* | Wind** | Luminosity | Snow |
|---|---|---|---|---|---|---|---|
| 1778175920 | 14.44° C | 53% | 1011.3 hPa | 0 mm | - | 941 W/m² | - |
| 1778175620 | 14.44° C | 53% | 1011.3 hPa | 0 mm | - | 959 W/m² | - |
| 1778175319 | 14.44° C | 50% | 1011.4 hPa | 0 mm | - | 858 W/m² | - |
| 1778175020 | 14.44° C | 50% | 1011.4 hPa | 0 mm | - | 965 W/m² | - |
| 1778174720 | 14.44° C | 50% | 1011.5 hPa | 0 mm | - | 974 W/m² | - |
| 1778174420 | 14.44° C | 50% | 1011.5 hPa | 0 mm | - | 679 W/m² | - |
| 1778174120 | 14.44° C | 49% | 1011.5 hPa | 0 mm | - | 932 W/m² | - |
| 1778173820 | 14.44° C | 49% | 1011.5 hPa | 0 mm | - | 935 W/m² | - |
| 1778173520 | 14.44° C | 49% | 1011.5 hPa | 0 mm | - | 959 W/m² | - |
| 1778173224 | 14.44° C | 49% | 1011.5 hPa | 0 mm | - | 757 W/m² | - |
| 1778172920 | 14.44° C | 50% | 1011.5 hPa | 0 mm | - | 841 W/m² | - |
| 1778172621 | 13.89° C | 52% | 1011.6 hPa | 0 mm | - | 950 W/m² | - |
| 1778172321 | 13.89° C | 50% | 1011.5 hPa | 0 mm | - | 713 W/m² | - |
| 1778172021 | 13.33° C | 48% | 1011.6 hPa | 0 mm | - | 923 W/m² | - |
| 1778171721 | 13.33° C | 50% | 1011.6 hPa | 0 mm | - | 875 W/m² | - |
| 1778171421 | 12.78° C | 51% | 1011.6 hPa | 0 mm | - | 714 W/m² | - |
| 1778171121 | 12.78° C | 52% | 1011.7 hPa | 0 mm | - | 891 W/m² | - |
| 1778170821 | 12.22° C | 53% | 1011.7 hPa | 0 mm | - | 849 W/m² | - |
| 1778170521 | 12.22° C | 52% | 1011.8 hPa | 0 mm | - | 623 W/m² | - |
| 1778170221 | 12.22° C | 53% | 1011.8 hPa | 0 mm | - | 504 W/m² | - |
| 1778169921 | 12.78° C | 53% | 1011.7 hPa | 0 mm | - | 286 W/m² | - |
| 1778169621 | 12.78° C | 55% | 1011.8 hPa | 0 mm | - | 417 W/m² | - |
| 1778169321 | 12.22° C | 56% | 1011.9 hPa | 0 mm | - | 710 W/m² | - |
| 1778169021 | 11.67° C | 56% | 1011.9 hPa | 0 mm | - | 583 W/m² | - |
| 1778168721 | 11.67° C | 57% | 1011.8 hPa | 0 mm | - | 236 W/m² | - |
* Rain latest hour (hover to see other rain measurements)
** Current wind speed in m/s (hover to see current wind gust speed)